Flag for U.S.A. Weather past 2 weeks in Post Falls, Idaho, U.S.A.

Now
48 °F

Cloudy.


Feels Like: 44 °F
Forecast: 44 / 53 °F
Wind: 9 mph from West

Location: Coeur d'Alene Weather Reporting System


UV Index: 0 (Low)

Visibility: 10 mi


Pressure: 29.81 "Hg

Humidity: 87%

Dew point: 45 °F

Location of Post FallsLocation

Historic Weather in Post Falls

°F

Post Falls temperature yesterday

Maximum temperature yesterday: 46 °F (at 2:55 PM)
Minimum temperature yesterday: 36 °F (at 1:15 AM)
Average temperature yesterday: 43 °F

Past Weeks' High & Low Weather Summary

 TemperatureHumidityPressure
High70 °F (Apr 8, 1:55 PM)93% (Apr 2, 9:15 PM)30.36 "Hg (Apr 2, 9:15 PM)
Low28 °F (Apr 13, 5:35 AM)10% (Apr 2, 8:55 PM)29.81 "Hg (Apr 11, 7:15 PM)
Average46 °F59%30.02 "Hg
* Reported Apr 2 1:35 PM — Apr 17 1:35 PM, Post Falls, Weather by CustomWeather, © 2014

Note: Actual official high and low records may vary slightly from our data, if they occured in-between our weather recording intervals... More about our weather records

Advertising

Historic Weather Conditions — Data for Previous 24 hours

 ConditionsComfort  
Time TempWeatherWind HumidityBarometerVisibility
1:35 PM
Apr 17
48 °FMore clouds than sun.7 mph87%29.82 "Hg10 mi
1:15 PM48 °FCloudy.8 mph87%29.83 "Hg8 mi
12:55 PM48 °FMostly cloudy.8 mph87%29.83 "Hg10 mi
12:35 PM48 °FMostly cloudy.7 mph87%29.83 "Hg9 mi
12:15 PM48 °FCloudy.9 mph87%29.83 "Hg10 mi
11:55 AM48 °FMostly cloudy.10 mph87%29.83 "Hg10 mi
11:35 AM48 °FMostly cloudy.10 mph87%29.84 "Hg10 mi
11:15 AM46 °FMostly cloudy.10 mph93%29.84 "Hg10 mi
10:55 AM46 °FBroken clouds.10 mph87%29.85 "Hg10 mi
9:55 AM45 °FMostly cloudy.12 mph93%29.85 "Hg10 mi
9:35 AM45 °FMostly cloudy.13 mph93%29.85 "Hg10 mi
9:15 AM45 °FOvercast.13 mph93%29.85 "Hg10 mi
8:55 AM45 °FMostly cloudy.12 mph93%29.85 "Hg10 mi
8:35 AM45 °FMostly cloudy.12 mph93%29.85 "Hg10 mi
8:15 AM45 °FMostly cloudy.10 mph87%29.86 "Hg10 mi
7:55 AM45 °FMostly cloudy.7 mph93%29.86 "Hg10 mi
7:35 AM43 °FOvercast.8 mph93%29.87 "Hg10 mi
7:15 AM43 °FMore clouds than sun.8 mph93%29.88 "Hg10 mi
6:55 AM43 °FOvercast.8 mph93%29.88 "Hg8 mi
6:35 AM43 °FOvercast.9 mph87%29.88 "Hg9 mi
5:55 AM43 °FOvercast.9 mph87%29.89 "Hg10 mi
5:35 AM43 °FOvercast.8 mph87%29.89 "Hg10 mi
5:15 AM43 °FOvercast.9 mph87%29.89 "Hg10 mi
4:55 AM43 °FMostly cloudy.8 mph87%29.90 "Hg10 mi
4:35 AM43 °FOvercast.8 mph87%29.90 "Hg10 mi
4:15 AM45 °FOvercast.7 mph81%29.90 "Hg10 mi
3:55 AM45 °FOvercast.7 mph81%29.91 "Hg10 mi
3:35 AM45 °FOvercast.7 mph81%29.92 "Hg10 mi
3:15 AM45 °FOvercast.8 mph81%29.92 "Hg10 mi
2:55 AM45 °FOvercast.8 mph81%29.92 "Hg10 mi
2:35 AM45 °FMostly cloudy.9 mph81%29.92 "Hg10 mi
1:55 AM45 °FMostly cloudy.6 mph81%29.94 "Hg10 mi
1:35 AM45 °FMostly cloudy.7 mph81%29.95 "Hg10 mi
1:15 AM45 °FMostly cloudy.3 mph81%29.95 "Hg10 mi
12:55 AM45 °FOvercast.No wind81%29.96 "Hg10 mi
12:35 AM45 °FOvercast.7 mph81%29.96 "Hg10 mi
12:15 AM45 °FOvercast.9 mph81%29.96 "Hg10 mi
11:55 PM
Apr 16
45 °FOvercast.8 mph81%29.97 "Hg10 mi
11:35 PM45 °FOvercast.7 mph81%29.97 "Hg10 mi
10:55 PM45 °FOvercast.8 mph81%29.97 "Hg10 mi
10:35 PM45 °FMostly cloudy.6 mph81%29.97 "Hg10 mi
10:15 PM45 °FMostly cloudy.5 mph81%29.98 "Hg10 mi
9:55 PM45 °FPassing clouds.7 mph81%29.98 "Hg10 mi
9:35 PM45 °FMostly cloudy.8 mph81%29.98 "Hg10 mi
9:15 PM45 °FMostly cloudy.8 mph81%29.99 "Hg10 mi
8:55 PM45 °FMostly cloudy.6 mph87%29.99 "Hg10 mi
8:15 PM45 °FMostly cloudy.6 mph81%29.98 "Hg10 mi
7:55 PM45 °FCloudy.5 mph81%29.98 "Hg10 mi
7:35 PM45 °FMore clouds than sun.7 mph81%29.99 "Hg10 mi
7:15 PM46 °FMostly cloudy.8 mph76%29.99 "Hg10 mi
6:55 PM46 °FMostly cloudy.6 mph82%29.99 "Hg10 mi
6:35 PM45 °FBroken clouds.7 mph87%30.00 "Hg10 mi
6:15 PM45 °FCloudy.9 mph87%30.00 "Hg10 mi
5:55 PM46 °FMostly cloudy.9 mph87%30.00 "Hg10 mi
5:35 PM46 °FMostly cloudy.12 mph82%30.00 "Hg10 mi
5:15 PM46 °FCloudy.13 mph82%30.00 "Hg10 mi
4:55 PM46 °FCloudy.8 mph76%30.00 "Hg10 mi
4:35 PM46 °FMostly cloudy.12 mph82%30.00 "Hg10 mi
4:15 PM46 °FMostly cloudy.6 mph76%30.01 "Hg10 mi
3:55 PM46 °FBroken clouds.3 mph82%30.01 "Hg10 mi
3:35 PM46 °FOvercast.No wind76%30.02 "Hg10 mi
3:15 PM46 °FMostly cloudy.5 mph76%30.02 "Hg10 mi
Weather by CustomWeather, © 2014

See weather overview